This is the latest recevied weather packets stored in our database for station/object K7YVO. If no packets are shown the sender has not sent any weather packets the latest 10 day(s).
| Time | Temp. | Humidity | Pressure | Rain* | Wind** | Luminosity | Snow |
|---|---|---|---|---|---|---|---|
| 1778025581 | 16.11° C | 74% | 1017.7 hPa | 0 mm | - | 106 W/m² | - |
| 1778025279 | 16.11° C | 74% | 1017.7 hPa | 0 mm | - | 111 W/m² | - |
| 1778024976 | 16.11° C | 74% | 1018 hPa | 0 mm | - | 121 W/m² | - |
| 1778024673 | 15.56° C | 75% | 1017.8 hPa | 0 mm | - | 126 W/m² | - |
| 1778024370 | 15.56° C | 75% | 1017.7 hPa | 0 mm | - | 123 W/m² | - |
| 1778024067 | 16.11° C | 75% | 1017.8 hPa | 0 mm | - | 117 W/m² | - |
| 1778023765 | 15.56° C | 76% | 1017.9 hPa | 0 mm | - | 105 W/m² | - |
| 1778023463 | 15.56° C | 76% | 1017.8 hPa | 0 mm | - | 101 W/m² | - |
| 1778023159 | 15.56° C | 76% | 1017.9 hPa | 0 mm | - | 101 W/m² | - |
| 1778022857 | 15.56° C | 77% | 1017.9 hPa | 0 mm | - | 101 W/m² | - |
| 1778022555 | 15.56° C | 77% | 1018 hPa | 0 mm | - | 103 W/m² | - |
| 1778022252 | 15.56° C | 76% | 1017.9 hPa | 0 mm | - | 105 W/m² | - |
| 1778021948 | 15.56° C | 76% | 1017.9 hPa | 0 mm | - | 105 W/m² | - |
| 1778021646 | 15.56° C | 76% | 1018 hPa | 0 mm | - | 106 W/m² | - |
| 1778021341 | 16.11° C | 76% | 1017.9 hPa | 0 mm | - | 123 W/m² | - |
| 1778021038 | 16.11° C | 75% | 1017.9 hPa | 0 mm | - | 131 W/m² | - |
| 1778020735 | 16.11° C | 75% | 1018.1 hPa | 0 mm | - | 122 W/m² | - |
| 1778020432 | 16.11° C | 73% | 1018.2 hPa | 0 mm | - | 126 W/m² | - |
| 1778020128 | 16.11° C | 74% | 1018 hPa | 0 mm | - | 150 W/m² | - |
| 1778019824 | 16.67° C | 73% | 1018.1 hPa | 0 mm | - | 151 W/m² | - |
| 1778019521 | 16.67° C | 73% | 1018.2 hPa | 0 mm | - | 159 W/m² | - |
| 1778019218 | 16.67° C | 73% | 1018.2 hPa | 0 mm | - | 206 W/m² | - |
| 1778018915 | 16.11° C | 72% | 1018.1 hPa | 0 mm | - | 225 W/m² | - |
| 1778018612 | 16.11° C | 73% | 1018.1 hPa | 0 mm | - | 207 W/m² | - |
| 1778018310 | 16.67° C | 72% | 1018.1 hPa | 0 mm | - | 192 W/m² | - |
* Rain latest hour (hover to see other rain measurements)
** Current wind speed in m/s (hover to see current wind gust speed)